This demonstration page uses our WeatherBlox Daily Observations layout. Learn more.

Left ArrowRight Arrow

39.12711, -84.51439

Hourly Observations for November 1, 2020

Temp ( °F °C ) Dew Point ( °F °C ) Humidity (%) Winds ( mph kmh ) Pressure ( in mb ) Visibility ( mi km ) Precip ( " mm )
12:53 am 00:53 Clear 46 7.8 40 4.4 79 79 SSW 6 9 30.08 1019 10 16 0.00 0.00
1:53 am 01:53 Clear 46 7.8 40 4.4 79 79 SSW 6 9 30.06 1018 10 16 0.00 0.00
1:53 am 01:53 Clear 48 8.9 41 5 77 77 SSW 8 13 30.04 1017 10 16 0.00 0.00
2:53 am 02:53 Mostly Cloudy 53 11.7 44 6.7 72 72 SSW 15 24 30.02 1017 10 16 0.00 0.00
3:53 am 03:53 Mostly Clear 52 11.1 44 6.7 75 75 SSW 14 22 29.99 1016 10 16 0.00 0.00
4:53 am 04:53 Clear 54 12.2 46 7.8 75 75 SSW 14 22 29.96 1015 10 16 0.00 0.00
5:53 am 05:53 Mostly Cloudy 54 12.2 46 7.8 75 75 SW 13 20 29.96 1015 10 16 0.00 0.00
6:53 am 06:53 Cloudy 54 12.2 45 7.2 72 72 WSW 18 30 29.97 1015 10 16 0.00 0.00
7:53 am 07:53 Mostly Cloudy 53 11.7 42 5.6 66 66 WSW 16 26 29.99 1016 10 16 0.00 0.00
8:53 am 08:53 Partly Cloudy 54 12.2 35 1.7 49 49 W 16 26 30.02 1017 10 16 0.00 0.00
9:53 am 09:53 Sunny 52 11.1 25 -3.9 35 35 W 23 37 30.06 1018 10 16 0.00 0.00
10:53 am 10:53 Sunny 53 11.7 27 -2.8 37 37 W 18 30 30.07 1018 10 16 0.00 0.00
11:53 am 11:53 Sunny 54 12.2 24 -4.4 31 31 W 24 39 30.09 1019 10 16 0.00 0.00
12:53 pm 12:53 Sunny 53 11.7 23 -5 31 31 W 21 33 30.09 1019 10 16 0.00 0.00
1:53 pm 13:53 Sunny 50 10 24 -4.4 36 36 WNW 21 33 30.11 1020 10 16 0.00 0.00
2:53 pm 14:53 Partly Cloudy 50 10 22 -5.6 33 33 W 30 48 30.15 1021 10 16 0.00 0.00
3:53 pm 15:53 Mostly Sunny 46 7.8 22 -5.6 38 38 NW 16 26 30.21 1023 10 16 0.00 0.00
4:53 pm 16:53 Mostly Cloudy 43 6.1 22 -5.6 43 43 NW 15 24 30.26 1025 10 16 0.00 0.00
5:53 pm 17:53 Cloudy 40 4.4 20 -6.7 45 45 WNW 20 31 30.29 1026 10 16 0.00 0.00
6:53 pm 18:53 Cloudy 40 4.4 21 -6.1 47 47 NW 7 11 30.32 1027 10 16 0.00 0.00
7:53 pm 19:53 Cloudy 40 4.4 20 -6.7 45 45 WNW 12 19 30.35 1028 10 16 0.00 0.00
8:53 pm 20:53 Cloudy 39 3.9 19 -7.2 45 45 NW 8 13 30.37 1028 10 16 0.00 0.00
9:53 pm 21:53 Mostly Cloudy 39 3.9 19 -7.2 45 45 NW 12 19 30.38 1029 10 16 0.00 0.00
10:53 pm 22:53 Clear 37 2.8 19 -7.2 48 48 WNW 8 13 30.38 1029 10 16 0.00 0.00
11:53 pm 23:53 Clear 35 1.7 20 -6.7 54 54 WNW 7 11 30.38 1029 10 16 0.00 0.00

Powered by AerisWeather